﻿Unidades: MW
Informação acedida em: 24/11/2022 10:42:15
Data e Hora;GRMS - Distribuição;UAG - Unidades Autónomas de Gaseificação;Mercado Elétrico;AP - Clientes Alta Pressão;Consumo
2020-11-23 05:00:00;2090.8;165.6;4317.3;1861.7;8435.3
2020-11-23 06:00:00;2601.0;187.2;5084.3;1867.3;9739.7
2020-11-23 07:00:00;3588.5;228.8;5486.9;1871.7;11175.9
2020-11-23 08:00:00;3923.2;242.7;5623.8;1868.6;11658.2
2020-11-23 09:00:00;3843.2;238.8;5808.5;1857.2;11747.7
2020-11-23 10:00:00;3800.5;235.7;5769.9;1824.5;11630.6
2020-11-23 11:00:00;3784.1;234.3;5848.6;1809.4;11676.4
2020-11-23 12:00:00;3832.6;236.5;5955.5;1812.6;11837.1
2020-11-23 13:00:00;3762.3;233.6;5997.7;1812.8;11806.3
2020-11-23 14:00:00;3597.6;226.7;6042.5;1813.5;11680.3
2020-11-23 15:00:00;3501.6;222.7;5959.3;1815.0;11498.7
2020-11-23 16:00:00;3466.8;222.2;6183.0;1837.3;11709.3
2020-11-23 17:00:00;3568.9;227.0;6172.2;1849.4;11817.5
2020-11-23 18:00:00;3810.6;237.6;6195.1;1861.7;12105.0
2020-11-23 19:00:00;4171.0;253.4;6328.2;1877.8;12630.4
2020-11-23 20:00:00;4218.0;255.0;6062.6;1868.1;12403.6
2020-11-23 21:00:00;3889.3;240.8;5897.0;1859.4;11886.5
2020-11-23 22:00:00;3517.4;224.6;5737.6;1843.5;11323.2
2020-11-23 23:00:00;3284.4;214.3;5172.2;1830.2;10501.2
2020-11-24 00:00:00;2788.9;193.5;4317.6;1829.8;9129.8
2020-11-24 01:00:00;2652.2;187.0;4184.2;1811.2;8834.7
2020-11-24 02:00:00;2620.1;185.3;4301.0;1803.7;8910.1
2020-11-24 03:00:00;2583.1;183.6;4325.4;1799.9;8892.0
2020-11-24 04:00:00;2528.3;181.2;4357.0;1796.2;8862.7
2020-11-24 05:00:00;2606.8;234.0;4803.6;1740.9;9385.3
2020-11-24 06:00:00;2927.6;254.6;5393.7;1802.7;10378.6
2020-11-24 07:00:00;3771.1;301.4;5804.4;1829.1;11706.1
2020-11-24 08:00:00;4144.2;320.0;6071.1;1801.1;12336.4
2020-11-24 09:00:00;4005.2;309.8;6164.4;1750.8;12230.2
2020-11-24 10:00:00;3904.9;304.7;6069.0;1755.8;12034.3
2020-11-24 11:00:00;3948.9;306.6;6187.1;1746.7;12189.3
2020-11-24 12:00:00;3940.6;306.8;6188.9;1758.8;12195.1
2020-11-24 13:00:00;3936.8;305.5;6186.9;1738.7;12167.9
2020-11-24 14:00:00;3706.2;292.6;6230.3;1729.2;11958.2
2020-11-24 15:00:00;3564.5;288.4;6094.5;1793.6;11741.0
2020-11-24 16:00:00;3539.6;287.0;6055.6;1793.0;11675.3
2020-11-24 17:00:00;3670.8;294.4;6057.2;1799.4;11822.0
2020-11-24 18:00:00;3935.3;308.0;5845.1;1787.2;11875.6
2020-11-24 19:00:00;4253.1;322.9;5983.7;1745.1;12304.9
2020-11-24 20:00:00;4237.1;322.4;5705.9;1752.1;12017.5
2020-11-24 21:00:00;3934.1;306.2;5618.0;1755.0;11613.3
2020-11-24 22:00:00;3527.9;283.9;5084.7;1747.2;10643.8
2020-11-24 23:00:00;3207.5;266.4;4679.3;1741.2;9894.3
2020-11-25 00:00:00;2711.3;239.3;4084.5;1735.3;8770.4
2020-11-25 01:00:00;2615.0;233.3;4058.5;1718.7;8625.5
2020-11-25 02:00:00;2525.6;229.5;4076.9;1737.9;8569.9
2020-11-25 03:00:00;2497.6;228.5;4219.6;1747.6;8693.3
2020-11-25 04:00:00;2481.0;227.9;4210.0;1753.8;8672.7
2020-11-25 05:00:00;2547.4;214.3;4839.0;1756.4;9357.1
2020-11-25 06:00:00;2851.0;229.8;5609.1;1763.3;10453.1
2020-11-25 07:00:00;3724.7;273.9;5939.1;1775.5;11713.2
2020-11-25 08:00:00;4050.0;289.8;6217.0;1768.6;12325.3
2020-11-25 09:00:00;4020.8;286.7;6028.4;1736.8;12072.7
2020-11-25 10:00:00;4014.1;286.1;6042.1;1731.3;12073.6
2020-11-25 11:00:00;4060.2;289.0;6194.0;1742.4;12285.5
2020-11-25 12:00:00;4123.0;292.2;6219.8;1745.6;12380.7
2020-11-25 13:00:00;4078.9;289.6;6184.3;1735.7;12288.4
2020-11-25 14:00:00;3886.9;280.3;6191.2;1742.0;12100.3
2020-11-25 15:00:00;3743.1;273.9;5873.0;1756.9;11647.0
2020-11-25 16:00:00;3673.5;269.3;5718.9;1735.0;11396.7
2020-11-25 17:00:00;3769.3;272.5;6160.7;1703.1;11905.5
2020-11-25 18:00:00;4035.4;286.2;6053.4;1712.1;12087.2
2020-11-25 19:00:00;4362.4;306.0;6090.4;1782.1;12540.9
2020-11-25 20:00:00;4396.4;309.0;5726.5;1808.8;12240.8
2020-11-25 21:00:00;4033.2;291.3;5700.4;1817.4;11842.3
2020-11-25 22:00:00;3649.3;271.2;5330.1;1796.1;11046.7
2020-11-25 23:00:00;3314.5;254.0;4823.1;1786.7;10178.4
2020-11-26 00:00:00;2811.7;229.1;3804.1;1789.6;8634.5
2020-11-26 01:00:00;2622.9;219.3;3860.8;1780.7;8483.7
2020-11-26 02:00:00;2572.0;217.5;3900.8;1794.7;8484.9
2020-11-26 03:00:00;2518.9;214.8;3760.0;1793.6;8287.3
2020-11-26 04:00:00;2500.1;213.9;3875.3;1794.9;8384.1
2020-11-26 05:00:00;2591.5;221.8;4480.6;1808.6;9102.4
2020-11-26 06:00:00;2902.6;236.9;5403.2;1797.3;10340.0
2020-11-26 07:00:00;3788.1;282.1;5744.3;1810.2;11624.6
2020-11-26 08:00:00;4151.6;299.7;5980.4;1796.1;12227.9
2020-11-26 09:00:00;4078.5;295.9;5864.0;1793.0;12031.4
2020-11-26 10:00:00;4032.0;293.2;5947.6;1785.9;12058.7
2020-11-26 11:00:00;4083.3;295.0;6158.8;1770.6;12307.7
2020-11-26 12:00:00;4114.6;297.2;5661.8;1782.7;11856.3
2020-11-26 13:00:00;4001.6;291.7;5576.4;1787.3;11657.1
2020-11-26 14:00:00;3787.8;281.5;5246.7;1797.5;11113.5
2020-11-26 15:00:00;3660.5;275.0;5157.0;1796.7;10889.2
2020-11-26 16:00:00;3610.2;271.5;5498.4;1776.2;11156.2
2020-11-26 17:00:00;3719.3;278.1;6014.9;1799.2;11811.5
2020-11-26 18:00:00;4004.0;293.1;5838.9;1811.6;11947.6
2020-11-26 19:00:00;4292.1;307.7;5681.8;1813.1;12094.7
2020-11-26 20:00:00;4307.7;308.3;6018.5;1810.1;12444.6
2020-11-26 21:00:00;4012.8;293.8;5712.8;1817.5;11836.9
2020-11-26 22:00:00;3610.6;273.7;4652.3;1820.5;10357.1
2020-11-26 23:00:00;3301.8;258.6;4360.4;1829.0;9749.8
2020-11-27 00:00:00;2782.7;232.9;3423.1;1838.7;8277.4
2020-11-27 01:00:00;2633.8;226.7;3801.8;1865.3;8527.6
2020-11-27 02:00:00;2555.0;222.8;4107.8;1866.7;8752.3
2020-11-27 03:00:00;2528.8;221.6;3942.8;1868.4;8561.5
2020-11-27 04:00:00;2518.7;221.1;3518.2;1868.1;8126.2
2020-11-27 05:00:00;2584.1;187.2;4529.8;1865.1;9166.2
2020-11-27 06:00:00;2927.1;201.6;5153.6;1864.0;10146.2
2020-11-27 07:00:00;3764.1;236.9;5878.4;1865.7;11745.1
2020-11-27 08:00:00;4112.9;251.3;5914.2;1860.4;12138.8
2020-11-27 09:00:00;4035.1;247.7;6244.6;1851.8;12379.1
2020-11-27 10:00:00;3981.8;244.8;6259.3;1835.4;12321.3
2020-11-27 11:00:00;3932.4;242.1;6297.5;1820.9;12292.8
2020-11-27 12:00:00;3988.5;243.8;6098.1;1805.3;12135.6
2020-11-27 13:00:00;3870.9;239.1;6257.0;1812.7;12179.8
2020-11-27 14:00:00;3649.1;229.2;6324.6;1798.8;12001.6
2020-11-27 15:00:00;3494.4;222.8;6050.8;1800.0;11568.0
2020-11-27 16:00:00;3489.9;223.0;6171.0;1809.5;11693.3
2020-11-27 17:00:00;3584.0;227.6;6124.6;1824.1;11760.2
2020-11-27 18:00:00;3762.6;236.0;6051.0;1845.5;11895.1
2020-11-27 19:00:00;3981.2;245.7;5954.8;1858.2;12039.9
2020-11-27 20:00:00;4006.2;246.0;5998.8;1841.3;12092.4
2020-11-27 21:00:00;3769.9;236.6;5785.3;1853.4;11645.3
2020-11-27 22:00:00;3439.3;222.4;4913.4;1845.9;10420.9
2020-11-27 23:00:00;3176.0;211.5;3255.8;1851.1;8494.5
2020-11-28 00:00:00;2634.7;188.8;1550.8;1853.4;6227.8
2020-11-28 01:00:00;2456.9;181.2;1606.1;1848.3;6092.5
2020-11-28 02:00:00;2401.9;178.7;1668.7;1845.3;6094.7
2020-11-28 03:00:00;2318.1;176.1;1652.2;1867.0;6013.4
2020-11-28 04:00:00;2228.9;172.0;1623.6;1859.3;5883.8
2020-11-28 05:00:00;2191.7;222.4;2083.3;1853.7;6351.2
2020-11-28 06:00:00;2237.7;224.6;2156.6;1847.1;6465.9
2020-11-28 07:00:00;2376.1;232.8;2125.3;1858.2;6592.4
2020-11-28 08:00:00;2610.2;244.4;2113.8;1834.7;6803.1
2020-11-28 09:00:00;2863.4;256.8;2044.3;1807.6;6972.2
2020-11-28 10:00:00;3025.8;265.4;1947.6;1800.2;7039.0
2020-11-28 11:00:00;3007.9;261.9;2064.4;1755.7;7089.9
2020-11-28 12:00:00;3072.9;265.0;2137.1;1746.3;7221.3
2020-11-28 13:00:00;2916.0;257.8;1930.8;1772.6;6877.1
2020-11-28 14:00:00;2625.1;244.0;2173.1;1813.0;6855.2
2020-11-28 15:00:00;2425.3;232.6;2442.0;1805.1;6905.0
2020-11-28 16:00:00;2406.4;231.7;2686.1;1808.1;7132.3
2020-11-28 17:00:00;2480.8;236.8;2642.5;1826.1;7186.2
2020-11-28 18:00:00;2735.1;250.4;2515.7;1819.1;7320.3
2020-11-28 19:00:00;3037.6;267.0;2656.3;1819.1;7780.0
2020-11-28 20:00:00;3017.2;265.6;2519.4;1814.1;7616.4
2020-11-28 21:00:00;2781.0;252.9;2283.5;1818.7;7136.1
2020-11-28 22:00:00;2269.7;224.3;2171.9;1810.4;6476.4
2020-11-28 23:00:00;2027.1;210.9;1532.4;1808.1;5578.5
2020-11-29 00:00:00;1847.7;201.6;1495.0;1818.5;5362.8
2020-11-29 01:00:00;1764.4;196.6;1506.3;1810.7;5278.0
2020-11-29 02:00:00;1683.8;193.5;1573.9;1835.8;5287.0
2020-11-29 03:00:00;1672.3;192.7;1681.4;1833.0;5379.5
2020-11-29 04:00:00;1680.4;191.9;1553.4;1808.8;5234.5
2020-11-29 05:00:00;1703.4;156.6;1552.9;1813.0;5225.9
2020-11-29 06:00:00;1766.6;160.7;2056.2;1842.0;5825.5
2020-11-29 07:00:00;1880.0;166.2;2083.3;1852.1;5981.7
2020-11-29 08:00:00;2085.1;175.2;2151.9;1848.2;6260.5
2020-11-29 09:00:00;2341.0;185.5;2196.5;1823.9;6546.9
2020-11-29 10:00:00;2497.9;192.3;2212.9;1820.0;6723.1
2020-11-29 11:00:00;2549.7;192.8;2154.5;1779.2;6676.1
2020-11-29 12:00:00;2643.3;196.3;2224.6;1765.3;6829.6
2020-11-29 13:00:00;2606.9;193.3;1995.3;1734.1;6529.6
2020-11-29 14:00:00;2339.0;184.2;2050.4;1796.8;6370.4
2020-11-29 15:00:00;2130.0;174.0;2149.3;1776.6;6230.0
2020-11-29 16:00:00;2058.8;170.4;2399.6;1767.8;6396.5
2020-11-29 17:00:00;2189.5;176.4;2568.2;1771.9;6706.0
2020-11-29 18:00:00;2421.8;186.4;2861.8;1764.2;7234.3
2020-11-29 19:00:00;2639.4;196.9;2910.5;1781.7;7528.4
2020-11-29 20:00:00;2622.9;197.2;2731.8;1804.1;7355.9
2020-11-29 21:00:00;2420.4;188.2;2747.6;1804.8;7161.0
2020-11-29 22:00:00;2198.9;178.3;2451.2;1805.4;6633.9
2020-11-29 23:00:00;2070.0;172.5;2164.5;1802.4;6209.4
2020-11-30 00:00:00;1949.7;166.8;2194.7;1796.0;6107.2
2020-11-30 01:00:00;1871.6;163.6;2169.9;1801.6;6006.6
2020-11-30 02:00:00;1783.7;160.8;1995.5;1826.4;5766.5
2020-11-30 03:00:00;1786.9;161.0;2116.6;1828.4;5892.9
2020-11-30 04:00:00;1851.4;163.3;2480.7;1815.4;6310.9
2020-11-30 05:00:00;1964.9;166.0;3687.6;1823.9;7642.5
2020-11-30 06:00:00;2272.2;179.5;4383.6;1824.7;8660.1
2020-11-30 07:00:00;2969.5;211.1;4901.9;1847.0;9929.5
2020-11-30 08:00:00;3424.4;230.2;5478.4;1829.2;10962.2
2020-11-30 09:00:00;3521.4;233.5;5619.5;1807.3;11181.7
2020-11-30 10:00:00;3545.1;234.4;5162.7;1803.3;10745.4
2020-11-30 11:00:00;3532.2;234.0;5637.7;1807.4;11211.2
2020-11-30 12:00:00;3582.6;236.4;5826.6;1811.5;11457.1
2020-11-30 13:00:00;3571.7;235.3;5876.3;1798.9;11482.2
2020-11-30 14:00:00;3389.7;227.0;6010.4;1789.5;11416.5
2020-11-30 15:00:00;3185.8;217.5;5774.8;1777.0;10955.1
2020-11-30 16:00:00;3106.7;214.2;5658.6;1780.6;10760.1
2020-11-30 17:00:00;3250.3;222.3;5616.8;1823.3;10912.8
2020-11-30 18:00:00;3486.4;233.3;5637.9;1837.4;11194.9
2020-11-30 19:00:00;3726.7;242.9;5988.6;1816.4;11774.6
2020-11-30 20:00:00;3720.3;242.3;5667.4;1808.6;11438.6
2020-11-30 21:00:00;3459.9;230.3;5346.4;1796.3;10833.0
2020-11-30 22:00:00;3120.9;215.7;4691.7;1801.2;9829.5
2020-11-30 23:00:00;2885.2;205.7;4210.5;1809.8;9111.3
2020-12-01 00:00:00;2381.1;183.6;4054.9;1809.4;8429.0
2020-12-01 01:00:00;2219.0;176.3;4099.7;1803.5;8298.3
2020-12-01 02:00:00;2100.2;171.5;4004.0;1813.0;8088.7
2020-12-01 03:00:00;2075.2;170.5;3958.4;1814.4;8018.5
2020-12-01 04:00:00;2043.5;169.6;3869.0;1827.4;7909.5
2020-12-01 05:00:00;2043.2;198.4;4612.1;1833.4;8687.0
2020-12-01 06:00:00;2115.3;203.4;5609.3;1858.4;9786.4
2020-12-01 07:00:00;2239.0;209.8;5732.5;1859.8;10041.1
2020-12-01 08:00:00;2474.9;221.8;6025.9;1858.7;10581.3
2020-12-01 09:00:00;2669.9;231.2;5799.9;1846.8;10547.9
2020-12-01 10:00:00;2756.5;234.5;5283.7;1824.2;10098.9
2020-12-01 11:00:00;2769.9;234.8;5361.8;1816.7;10183.2
2020-12-01 12:00:00;2845.0;237.6;5787.2;1796.4;10666.2
2020-12-01 13:00:00;2800.6;235.2;5653.7;1795.1;10484.6
2020-12-01 14:00:00;2588.1;223.1;5942.4;1770.6;10524.3
2020-12-01 15:00:00;2382.8;214.2;6015.1;1802.6;10414.9
2020-12-01 16:00:00;2361.5;214.1;6102.1;1821.6;10499.3
2020-12-01 17:00:00;2558.7;225.3;6117.6;1843.8;10745.3
2020-12-01 18:00:00;2853.4;240.6;6186.1;1847.4;11127.5
2020-12-01 19:00:00;3097.0;253.6;6240.7;1858.2;11449.5
2020-12-01 20:00:00;3007.0;249.1;5963.2;1858.9;11078.3
2020-12-01 21:00:00;2771.9;237.3;5718.0;1863.3;10590.5
2020-12-01 22:00:00;2590.1;228.2;5205.7;1868.1;9892.1
2020-12-01 23:00:00;2406.1;219.0;3888.5;1872.3;8385.8
2020-12-02 00:00:00;2256.0;211.4;2173.5;1873.1;6513.9
2020-12-02 01:00:00;2250.4;211.2;2131.3;1874.8;6467.7
2020-12-02 02:00:00;2205.5;208.7;2007.7;1872.1;6294.0
2020-12-02 03:00:00;2185.8;207.2;2184.8;1862.5;6440.4
2020-12-02 04:00:00;2246.2;210.2;2153.9;1859.4;6469.6
2020-12-02 05:00:00;2365.7;204.7;2368.8;1872.0;6811.3
2020-12-02 06:00:00;2839.6;227.3;3664.7;1865.4;8597.0
2020-12-02 07:00:00;3821.6;276.9;3961.4;1910.0;9969.8
2020-12-02 08:00:00;4237.1;295.9;3816.9;1887.3;10237.2
2020-12-02 09:00:00;4115.9;289.2;3718.3;1869.2;9992.5
2020-12-02 10:00:00;3980.6;281.6;3429.9;1848.9;9541.0
2020-12-02 11:00:00;4015.7;281.0;3289.6;1801.0;9387.3
2020-12-02 12:00:00;3982.5;276.3;3330.9;1737.3;9327.1
2020-12-02 13:00:00;3922.0;273.8;3452.4;1744.1;9392.2
2020-12-02 14:00:00;3747.3;265.7;3402.5;1752.5;9168.1
2020-12-02 15:00:00;3622.0;259.8;3745.5;1755.1;9382.4
2020-12-02 16:00:00;3595.0;259.2;3769.9;1770.4;9394.6
2020-12-02 17:00:00;3754.9;265.1;3913.4;1733.1;9666.5
2020-12-02 18:00:00;4028.4;277.8;3802.9;1721.1;9830.2
2020-12-02 19:00:00;4362.5;293.9;3786.3;1721.4;10164.2
2020-12-02 20:00:00;4434.1;297.8;3780.8;1729.5;10242.2
2020-12-02 21:00:00;4171.4;284.7;3764.9;1720.6;9941.6
2020-12-02 22:00:00;3747.0;263.7;3616.7;1712.1;9339.6
2020-12-02 23:00:00;3452.1;249.3;2842.6;1708.6;8252.7
2020-12-03 00:00:00;2912.6;223.9;2079.9;1722.4;6938.8
2020-12-03 01:00:00;2737.0;215.5;2123.3;1723.0;6798.8
2020-12-03 02:00:00;2661.7;211.6;2255.4;1717.3;6846.0
2020-12-03 03:00:00;2692.2;213.4;2565.1;1724.3;7195.0
2020-12-03 04:00:00;2654.4;211.3;2937.7;1719.8;7523.3
2020-12-03 05:00:00;2788.6;221.8;3791.0;1743.2;8544.7
2020-12-03 06:00:00;3119.3;237.6;4545.3;1734.7;9636.9
2020-12-03 07:00:00;3977.6;281.8;4851.1;1780.3;10890.8
2020-12-03 08:00:00;4379.3;302.5;4944.3;1801.4;11427.5
2020-12-03 09:00:00;4227.4;297.8;4834.5;1857.7;11217.5
2020-12-03 10:00:00;4146.2;298.0;4725.6;1942.3;11112.0
2020-12-03 11:00:00;4122.8;296.6;4799.4;1937.0;11155.8
2020-12-03 12:00:00;4149.3;298.3;4632.4;1945.1;11025.1
2020-12-03 13:00:00;4111.9;296.3;4359.9;1942.7;10710.8
2020-12-03 14:00:00;3965.5;288.8;4371.7;1935.5;10561.6
2020-12-03 15:00:00;3816.5;279.9;4521.0;1902.5;10519.9
2020-12-03 16:00:00;3802.5;281.1;4569.8;1940.8;10594.2
2020-12-03 17:00:00;3941.5;286.5;4756.8;1912.6;10897.4
2020-12-03 18:00:00;4198.9;296.7;4584.0;1862.7;10942.4
2020-12-03 19:00:00;4638.8;316.4;4667.8;1826.4;11449.3
2020-12-03 20:00:00;4693.3;317.7;4035.7;1798.3;10845.0
2020-12-03 21:00:00;4361.2;302.3;2584.9;1815.2;9063.7
2020-12-03 22:00:00;3922.5;281.1;912.4;1821.7;6937.7
2020-12-03 23:00:00;3582.3;264.6;436.3;1823.2;6106.4
2020-12-04 00:00:00;2982.5;236.0;428.7;1839.8;5486.9
2020-12-04 01:00:00;2720.5;223.4;428.0;1843.8;5215.7
2020-12-04 02:00:00;2597.4;217.3;420.6;1842.5;5077.8
2020-12-04 03:00:00;2619.5;218.5;423.0;1843.9;5104.9
2020-12-04 04:00:00;2609.5;216.5;421.9;1814.6;5062.6
2020-12-04 05:00:00;2655.5;220.2;467.1;1825.5;5168.2
2020-12-04 06:00:00;3013.9;238.0;2109.7;1828.6;7190.2
2020-12-04 07:00:00;3897.0;281.5;2827.8;1831.9;8838.2
2020-12-04 08:00:00;4265.0;299.1;3397.9;1822.4;9784.4
2020-12-04 09:00:00;4196.4;295.6;3392.7;1819.8;9704.5
2020-12-04 10:00:00;4177.7;293.8;3406.3;1800.9;9678.6
2020-12-04 11:00:00;4170.2;294.2;3453.8;1817.1;9735.2
2020-12-04 12:00:00;4262.0;298.6;3783.1;1815.0;10158.8
2020-12-04 13:00:00;4235.1;297.9;3960.7;1827.7;10321.3
2020-12-04 14:00:00;4085.8;297.4;4115.0;1965.5;10463.7
2020-12-04 15:00:00;3947.2;290.5;4575.4;1965.7;10778.9
2020-12-04 16:00:00;3967.4;290.5;5001.1;1945.5;11204.5
2020-12-04 17:00:00;4094.3;295.6;5585.5;1920.6;11895.9
2020-12-04 18:00:00;4320.8;300.5;5679.4;1795.3;12096.0
2020-12-04 19:00:00;4612.9;315.0;5610.3;1797.2;12335.4
2020-12-04 20:00:00;4640.5;316.9;5680.4;1809.2;12447.0
2020-12-04 21:00:00;4354.0;302.5;5655.7;1801.8;12114.1
2020-12-04 22:00:00;3896.6;279.9;5541.1;1799.4;11517.1
2020-12-04 23:00:00;3603.0;265.6;4279.1;1802.2;9949.9
2020-12-05 00:00:00;2923.9;231.6;2757.7;1788.6;7701.8
2020-12-05 01:00:00;2695.2;220.3;2646.2;1788.6;7350.3
2020-12-05 02:00:00;2614.1;215.9;2409.8;1779.0;7018.8
2020-12-05 03:00:00;2534.3;213.1;1910.8;1801.8;6460.0
2020-12-05 04:00:00;2432.2;208.3;1484.2;1807.1;5931.8
2020-12-05 05:00:00;2437.6;190.7;1292.7;1813.4;5734.3
2020-12-05 06:00:00;2483.5;192.9;2005.7;1818.1;6500.4
2020-12-05 07:00:00;2658.9;200.7;2240.1;1816.9;6916.6
2020-12-05 08:00:00;2904.6;211.8;2559.6;1818.9;7494.9
2020-12-05 09:00:00;3223.4;225.9;2901.8;1812.9;8163.9
2020-12-05 10:00:00;3441.8;236.0;2932.0;1819.3;8429.1
2020-12-05 11:00:00;3400.2;232.9;2868.4;1792.3;8293.8
2020-12-05 12:00:00;3451.4;235.3;3175.7;1793.9;8656.3
2020-12-05 13:00:00;3283.5;227.8;3369.5;1795.6;8676.3
2020-12-05 14:00:00;2987.9;214.4;3581.7;1792.0;8576.0
2020-12-05 15:00:00;2718.9;204.4;3744.4;1839.3;8506.9
2020-12-05 16:00:00;2705.1;206.0;4019.1;1888.0;8818.2
2020-12-05 17:00:00;2862.5;212.9;3871.6;1885.4;8832.5
2020-12-05 18:00:00;3166.5;224.9;4025.6;1848.2;9265.3
2020-12-05 19:00:00;3450.3;238.8;4007.1;1874.5;9570.7
2020-12-05 20:00:00;3390.4;235.4;3515.3;1858.2;8999.2
2020-12-05 21:00:00;3113.4;222.0;3151.5;1835.8;8322.7
2020-12-05 22:00:00;2583.5;198.4;3007.8;1839.3;7629.0
2020-12-05 23:00:00;2316.4;186.8;2269.5;1848.4;6621.1
2020-12-06 00:00:00;2064.1;175.0;1908.6;1837.5;5985.2
2020-12-06 01:00:00;1949.1;169.0;1568.8;1818.2;5505.0
2020-12-06 02:00:00;1844.5;164.8;1313.1;1830.4;5152.8
2020-12-06 03:00:00;1808.0;163.1;855.8;1828.5;4655.4
2020-12-06 04:00:00;1812.8;163.2;922.6;1826.7;4725.3
2020-12-06 05:00:00;1849.1;177.7;945.5;1834.1;4806.4
2020-12-06 06:00:00;1895.9;179.9;935.0;1832.3;4843.1
2020-12-06 07:00:00;2016.8;185.6;870.2;1830.1;4902.6
2020-12-06 08:00:00;2255.8;196.8;1308.3;1822.3;5583.1
2020-12-06 09:00:00;2535.1;210.8;1312.9;1833.2;5891.9
2020-12-06 10:00:00;2727.3;219.1;1306.5;1813.2;6066.2
2020-12-06 11:00:00;2828.3;223.8;1312.7;1809.6;6174.3
2020-12-06 12:00:00;2894.8;225.1;1310.9;1770.7;6201.4
2020-12-06 13:00:00;2870.5;224.8;1309.8;1788.7;6193.8
2020-12-06 14:00:00;2632.2;214.6;1318.6;1815.1;5980.5
2020-12-06 15:00:00;2428.8;205.2;1318.1;1823.9;5775.9
2020-12-06 16:00:00;2363.5;200.5;1142.3;1792.5;5498.9
2020-12-06 17:00:00;2479.0;204.9;1753.9;1768.3;6206.1
2020-12-06 18:00:00;2701.1;215.1;1723.4;1756.5;6396.1
2020-12-06 19:00:00;2925.3;225.8;1719.0;1754.0;6624.0
2020-12-06 20:00:00;2911.6;225.4;1544.3;1759.1;6440.4
2020-12-06 21:00:00;2634.5;211.8;1527.3;1755.8;6129.5
2020-12-06 22:00:00;2378.7;199.3;1164.4;1752.8;5495.2
2020-12-06 23:00:00;2168.1;189.8;601.5;1766.2;4725.6
2020-12-07 00:00:00;2020.7;183.0;0.0;1772.5;3976.1
2020-12-07 01:00:00;1946.1;179.5;0.0;1774.9;3900.6
2020-12-07 02:00:00;1888.2;177.1;2.2;1781.7;3849.2
2020-12-07 03:00:00;1848.1;176.3;0.0;1805.5;3829.9
2020-12-07 04:00:00;1888.0;178.2;2.0;1805.9;3874.2
2020-12-07 05:00:00;2019.1;172.4;0.0;1796.8;3988.3
2020-12-07 06:00:00;2362.4;188.2;2.1;1803.7;4356.5
2020-12-07 07:00:00;3079.1;219.6;0.0;1781.8;5080.5
2020-12-07 08:00:00;3490.7;240.0;0.0;1821.6;5552.3
2020-12-07 09:00:00;3597.2;244.1;0.0;1805.3;5646.6
2020-12-07 10:00:00;3621.8;245.3;6.6;1808.1;5681.8
2020-12-07 11:00:00;3630.5;244.4;0.0;1779.9;5654.9
2020-12-07 12:00:00;3738.4;248.9;0.0;1771.2;5758.5
2020-12-07 13:00:00;3734.6;248.4;0.0;1763.4;5746.4
2020-12-07 14:00:00;3593.3;241.4;0.0;1749.7;5584.3
2020-12-07 15:00:00;3421.3;235.2;0.0;1784.3;5440.8
2020-12-07 16:00:00;3335.7;230.7;0.0;1772.1;5338.6
2020-12-07 17:00:00;3461.4;238.3;4.6;1813.8;5518.0
2020-12-07 18:00:00;3718.9;250.5;0.0;1825.9;5795.3
2020-12-07 19:00:00;3965.5;259.8;0.0;1786.0;6011.3
2020-12-07 20:00:00;3934.1;258.4;0.0;1784.8;5977.3
2020-12-07 21:00:00;3590.2;245.1;0.0;1835.1;5670.3
2020-12-07 22:00:00;3177.8;224.7;0.0;1796.6;5199.1
2020-12-07 23:00:00;2870.7;210.7;0.0;1794.2;4875.6
2020-12-08 00:00:00;2296.7;185.3;0.0;1805.6;4287.7
2020-12-08 01:00:00;2178.2;179.8;0.0;1801.6;4159.6
2020-12-08 02:00:00;2068.8;175.0;0.0;1806.0;4049.8
2020-12-08 03:00:00;1980.7;171.7;2.9;1820.7;3976.1
2020-12-08 04:00:00;1973.2;172.3;3.8;1840.8;3990.1
2020-12-08 05:00:00;1999.1;213.2;0.0;1848.2;4060.5
2020-12-08 06:00:00;2050.3;215.9;0.0;1846.1;4112.4
2020-12-08 07:00:00;2234.2;226.0;0.0;1843.6;4303.8
2020-12-08 08:00:00;2456.6;237.6;0.0;1830.4;4524.6
2020-12-08 09:00:00;2670.6;248.6;0.0;1815.1;4734.4
2020-12-08 10:00:00;2823.3;257.5;0.0;1822.0;4902.8
2020-12-08 11:00:00;2869.8;260.6;0.0;1832.5;4962.9
2020-12-08 12:00:00;2971.6;269.5;6.5;1891.8;5139.4
2020-12-08 13:00:00;2992.1;273.3;0.2;1939.5;5205.1
2020-12-08 14:00:00;2768.9;260.9;0.0;1937.8;4967.6
2020-12-08 15:00:00;2537.9;247.3;0.0;1924.0;4709.3
2020-12-08 16:00:00;2476.9;248.8;37.2;2011.9;4774.8
2020-12-08 17:00:00;2691.4;261.3;1108.7;2023.1;6084.6
2020-12-08 18:00:00;3013.3;278.8;1267.3;2017.8;6577.2
2020-12-08 19:00:00;3309.9;295.1;1552.9;2015.4;7173.3
2020-12-08 20:00:00;3291.8;289.6;1748.4;1933.2;7263.0
2020-12-08 21:00:00;2997.7;271.4;1928.0;1899.6;7096.7
2020-12-08 22:00:00;2726.7;258.1;1975.0;1929.6;6889.4
2020-12-08 23:00:00;2516.4;248.0;2030.9;1957.7;6753.0
2020-12-09 00:00:00;2349.0;240.3;1543.4;1986.3;6119.0
2020-12-09 01:00:00;2275.2;236.2;1437.3;1986.2;5934.9
2020-12-09 02:00:00;2174.3;229.1;1461.5;1960.0;5825.0
2020-12-09 03:00:00;2139.5;227.1;1562.8;1958.6;5888.1
2020-12-09 04:00:00;2182.8;231.9;1963.6;2001.1;6379.5
2020-12-09 05:00:00;2329.0;225.4;3135.6;1979.2;7669.2
2020-12-09 06:00:00;2853.6;251.4;3663.2;1951.2;8719.5
2020-12-09 07:00:00;3842.7;305.2;4260.7;1991.4;10399.9
2020-12-09 08:00:00;4318.7;330.3;4582.3;1995.1;11226.4
2020-12-09 09:00:00;4270.0;328.7;4829.3;2012.4;11440.4
2020-12-09 10:00:00;4198.9;324.2;4659.7;1997.8;11180.6
2020-12-09 11:00:00;4205.3;320.2;4777.8;1914.1;11217.4
2020-12-09 12:00:00;4245.2;319.0;4581.4;1852.6;10998.3
2020-12-09 13:00:00;4193.2;315.4;5052.2;1834.8;11395.6
2020-12-09 14:00:00;4018.4;305.5;4957.5;1819.8;11101.1
2020-12-09 15:00:00;3859.6;297.2;4772.4;1821.4;10750.7
2020-12-09 16:00:00;3789.8;293.5;4749.8;1819.5;10652.6
2020-12-09 17:00:00;3892.5;299.4;4835.4;1829.8;10857.1
2020-12-09 18:00:00;4173.3;314.3;4699.7;1834.6;11021.9
2020-12-09 19:00:00;4505.9;332.0;4395.6;1838.7;11072.1
2020-12-09 20:00:00;4589.6;335.9;4389.1;1830.8;11145.4
2020-12-09 21:00:00;4282.0;319.8;3954.6;1831.3;10387.7
2020-12-09 22:00:00;3821.4;295.2;3114.7;1819.7;9051.1
2020-12-09 23:00:00;3418.1;273.7;1848.7;1813.6;7354.1
2020-12-10 00:00:00;2798.5;239.8;943.6;1785.4;5767.2
2020-12-10 01:00:00;2615.6;231.1;944.7;1800.9;5592.3
2020-12-10 02:00:00;2469.5;224.1;983.6;1814.6;5491.8
2020-12-10 03:00:00;2438.6;221.9;1077.8;1801.9;5540.3
2020-12-10 04:00:00;2459.0;223.0;969.1;1804.1;5455.2
2020-12-10 05:00:00;2600.5;237.4;1400.1;1797.3;6035.2
2020-12-10 06:00:00;2929.5;254.4;1684.6;1783.5;6652.1
2020-12-10 07:00:00;3773.3;300.4;2356.8;1793.5;8224.0
2020-12-10 08:00:00;4090.2;317.4;2575.7;1791.1;8774.4
2020-12-10 09:00:00;4021.8;313.4;2609.6;1785.3;8730.1
2020-12-10 10:00:00;3971.8;311.2;2596.4;1795.0;8674.4
2020-12-10 11:00:00;3953.6;310.1;2599.0;1792.4;8655.1
2020-12-10 12:00:00;4074.5;316.1;2558.7;1782.4;8731.8
2020-12-10 13:00:00;4063.3;314.7;2341.2;1768.3;8487.6
2020-12-10 14:00:00;3920.5;306.4;2688.3;1756.6;8671.8
2020-12-10 15:00:00;3763.4;295.8;2628.2;1717.0;8404.4
2020-12-10 16:00:00;3714.7;293.1;2583.6;1716.2;8307.6
2020-12-10 17:00:00;3767.0;295.9;2704.1;1715.3;8482.2
2020-12-10 18:00:00;4054.4;308.0;2659.1;1651.4;8672.9
2020-12-10 19:00:00;4441.7;328.8;2671.1;1651.1;9092.7
2020-12-10 20:00:00;4492.1;331.3;2652.4;1645.4;9121.1
2020-12-10 21:00:00;4166.3;314.2;2561.8;1656.1;8698.5
2020-12-10 22:00:00;3731.9;291.9;1519.2;1676.1;7219.0
2020-12-10 23:00:00;3365.7;273.4;255.1;1699.9;5594.1
2020-12-11 00:00:00;2817.0;247.1;0.0;1760.4;4824.5
2020-12-11 01:00:00;2645.7;245.3;0.0;1899.1;4790.1
2020-12-11 02:00:00;2512.5;240.9;0.0;1951.4;4704.9
2020-12-11 03:00:00;2493.7;236.7;0.0;1891.0;4621.4
2020-12-11 04:00:00;2528.4;235.6;0.0;1837.1;4601.0